BKB5 CYKA-CYKA

Flight info

Callsign BKB5
Flight time 1h 15m
Altitude 12000
Route OLONA2 OLONA DCT OVENA
Aircraft P46T/L-SBDGRWY/SB1

Departure

Time 2026-04-15 19:05
Airport Kamloops John Moose Fulton Field Regional Airport (CYKA)

Arrival

Time 2026-04-15 20:21
Airport Kamloops John Moose Fulton Field Regional Airport (CYKA)
Time Latitude Longitude Altitude Speed Heading
2026-04-15 19:00 50.70554 -120.43688 1132 ft 4 kts 152°
2026-04-15 19:00 50.70466 -120.43626 1129 ft 20 kts 157°
2026-04-15 19:00 50.70357 -120.43548 1129 ft 13 kts 158°
2026-04-15 19:00 50.70296 -120.43508 1129 ft 6 kts 150°
2026-04-15 19:01 50.70264 -120.43406 1131 ft 16 kts 99°
2026-04-15 19:01 50.70199 -120.43234 1132 ft 17 kts 150°
2026-04-15 19:01 50.70128 -120.43187 1131 ft 3 kts 180°
2026-04-15 19:01 50.70125 -120.43187 1130 ft 1 kts 181°
2026-04-15 19:02 50.70094 -120.43195 1130 ft 6 kts 193°
2026-04-15 19:02 50.70059 -120.43255 1117 ft 12 kts 287°
2026-04-15 19:02 50.70083 -120.43418 1124 ft 26 kts 271°
2026-04-15 19:02 50.70117 -120.43677 1124 ft 20 kts 291°
2026-04-15 19:03 50.70170 -120.43876 1133 ft 17 kts 295°
2026-04-15 19:03 50.70206 -120.43894 1130 ft 4 kts 70°
2026-04-15 19:03 50.70208 -120.43878 1130 ft 0 kts 118°
2026-04-15 19:04 50.70199 -120.43875 1130 ft 3 kts 216°
2026-04-15 19:04 50.70178 -120.43999 1131 ft 20 kts 265°
2026-04-15 19:04 50.70224 -120.44334 1133 ft 55 kts 285°
2026-04-15 19:05 50.70363 -120.45216 1131 ft 107 kts 281°
2026-04-15 19:05 50.70590 -120.46456 1372 ft 119 kts 280°
2026-04-15 19:05 50.70893 -120.47672 1826 ft 125 kts 290°
2026-04-15 19:05 50.70928 -120.48969 2297 ft 120 kts 253°
2026-04-15 19:06 50.70269 -120.49851 2670 ft 140 kts 203°
2026-04-15 19:06 50.69317 -120.49406 3136 ft 158 kts 136°
2026-04-15 19:06 50.69044 -120.47761 3551 ft 161 kts 86°
2026-04-15 19:06 50.69129 -120.45837 3562 ft 185 kts 85°
2026-04-15 19:07 50.69172 -120.43813 3962 ft 181 kts 86°
2026-04-15 19:07 50.69242 -120.41799 4199 ft 187 kts 87°
2026-04-15 19:07 50.69265 -120.39772 4576 ft 186 kts 87°
2026-04-15 19:07 50.69272 -120.37711 4869 ft 187 kts 89°
2026-04-15 19:08 50.69595 -120.35791 5140 ft 181 kts 54°
2026-04-15 19:08 50.70345 -120.34200 5426 ft 181 kts 48°
2026-04-15 19:08 50.71239 -120.32855 5734 ft 176 kts 32°
2026-04-15 19:08 50.72237 -120.31733 6017 ft 177 kts 29°
2026-04-15 19:09 50.73243 -120.30606 6265 ft 178 kts 30°
2026-04-15 19:09 50.74254 -120.29447 6411 ft 180 kts 33°
2026-04-15 19:09 50.75279 -120.28297 6658 ft 179 kts 29°
2026-04-15 19:09 50.76287 -120.27142 6937 ft 180 kts 33°
2026-04-15 19:10 50.77310 -120.25988 7216 ft 181 kts 31°
2026-04-15 19:10 50.78336 -120.24820 7515 ft 182 kts 32°
2026-04-15 19:10 50.79376 -120.23670 7792 ft 183 kts 29°
2026-04-15 19:10 50.80422 -120.22516 8076 ft 184 kts 30°
2026-04-15 19:11 50.81459 -120.21354 8355 ft 186 kts 32°
2026-04-15 19:11 50.82527 -120.20191 8646 ft 187 kts 30°
2026-04-15 19:11 50.83593 -120.19001 8936 ft 188 kts 31°
2026-04-15 19:11 50.84666 -120.17825 9202 ft 187 kts 30°
2026-04-15 19:12 50.85741 -120.16625 9457 ft 190 kts 30°
2026-04-15 19:12 50.86832 -120.15426 9724 ft 191 kts 31°
2026-04-15 19:12 50.87928 -120.14224 9936 ft 193 kts 30°
2026-04-15 19:12 50.89035 -120.13012 10168 ft 193 kts 29°
2026-04-15 19:13 50.90148 -120.11794 10389 ft 196 kts 31°
2026-04-15 19:13 50.91272 -120.10552 10612 ft 197 kts 32°
2026-04-15 19:13 50.92400 -120.09313 10831 ft 199 kts 30°
2026-04-15 19:13 50.93538 -120.08049 11062 ft 199 kts 32°
2026-04-15 19:14 50.94686 -120.06793 11257 ft 203 kts 31°
2026-04-15 19:14 50.95859 -120.05540 11465 ft 203 kts 32°
2026-04-15 19:14 50.97036 -120.04301 11653 ft 204 kts 31°
2026-04-15 19:14 50.98223 -120.03038 11855 ft 206 kts 32°
2026-04-15 19:15 50.99415 -120.01787 12104 ft 206 kts 30°
2026-04-15 19:15 51.00623 -120.00519 12313 ft 208 kts 32°
2026-04-15 19:15 51.01828 -119.99257 12527 ft 208 kts 31°
2026-04-15 19:15 51.03038 -119.97970 12700 ft 210 kts 31°
2026-04-15 19:16 51.04282 -119.96682 12767 ft 218 kts 30°
2026-04-15 19:16 51.05570 -119.95338 12777 ft 225 kts 32°
2026-04-15 19:16 51.06891 -119.93962 12785 ft 228 kts 31°
2026-04-15 19:16 51.08221 -119.92578 12785 ft 229 kts 32°
2026-04-15 19:17 51.09583 -119.91284 12776 ft 228 kts 25°
2026-04-15 19:17 51.11002 -119.90135 12777 ft 229 kts 25°
2026-04-15 19:17 51.12429 -119.89013 12776 ft 230 kts 25°
2026-04-15 19:17 51.13862 -119.87880 12777 ft 229 kts 25°
2026-04-15 19:18 51.15278 -119.86759 12772 ft 226 kts 25°
2026-04-15 19:18 51.16651 -119.85661 12770 ft 223 kts 24°
2026-04-15 19:18 51.19408 -119.83468 12766 ft 220 kts 23°
2026-04-15 19:19 51.20778 -119.82384 12767 ft 220 kts 25°
2026-04-15 19:19 51.22166 -119.81329 12766 ft 221 kts 24°
2026-04-15 19:19 51.23560 -119.80293 12767 ft 221 kts 24°
2026-04-15 19:19 51.24955 -119.79251 12765 ft 221 kts 24°
2026-04-15 19:20 51.26346 -119.78214 12765 ft 221 kts 24°
2026-04-15 19:20 51.27738 -119.77174 12768 ft 220 kts 24°
2026-04-15 19:20 51.29128 -119.76138 12770 ft 220 kts 24°
2026-04-15 19:20 51.30514 -119.75104 12772 ft 220 kts 24°
2026-04-15 19:21 51.31919 -119.74135 12768 ft 220 kts 19°
2026-04-15 19:21 51.33368 -119.73334 12768 ft 220 kts 17°
2026-04-15 19:21 51.34817 -119.72558 12769 ft 219 kts 17°
2026-04-15 19:21 51.36263 -119.71788 12772 ft 219 kts 17°
2026-04-15 19:22 51.37713 -119.71013 12770 ft 220 kts 17°
2026-04-15 19:22 51.39163 -119.70238 12769 ft 220 kts 17°
2026-04-15 19:22 51.40614 -119.69461 12778 ft 220 kts 17°
2026-04-15 19:22 51.42071 -119.68679 12779 ft 222 kts 17°
2026-04-15 19:23 51.43536 -119.67870 12784 ft 223 kts 18°
2026-04-15 19:23 51.45007 -119.67062 12781 ft 223 kts 17°
2026-04-15 19:23 51.46474 -119.66251 12783 ft 222 kts 18°
2026-04-15 19:23 51.47937 -119.65452 12780 ft 222 kts 18°
2026-04-15 19:24 51.49395 -119.64641 12781 ft 222 kts 18°
2026-04-15 19:24 51.50855 -119.63834 12781 ft 222 kts 18°
2026-04-15 19:24 51.52317 -119.63029 12782 ft 222 kts 16°
2026-04-15 19:24 51.53779 -119.62226 12780 ft 222 kts 17°
2026-04-15 19:25 51.55239 -119.61415 12782 ft 222 kts 17°
2026-04-15 19:25 51.56698 -119.60601 12784 ft 222 kts 17°
2026-04-15 19:25 51.58158 -119.59782 12784 ft 223 kts 17°
2026-04-15 19:25 51.59623 -119.58965 12783 ft 223 kts 17°
2026-04-15 19:26 51.61086 -119.58155 12780 ft 222 kts 18°
2026-04-15 19:26 51.62548 -119.57339 12781 ft 223 kts 18°
2026-04-15 19:26 51.64015 -119.56524 12782 ft 223 kts 17°
2026-04-15 19:26 51.65481 -119.55700 12784 ft 223 kts 18°
2026-04-15 19:27 51.66948 -119.54881 12779 ft 223 kts 17°
2026-04-15 19:27 51.68415 -119.54060 12780 ft 223 kts 18°
2026-04-15 19:27 51.69884 -119.53243 12783 ft 224 kts 17°
2026-04-15 19:27 51.71356 -119.52418 12784 ft 224 kts 18°
2026-04-15 19:28 51.72827 -119.51597 12796 ft 224 kts 17°
2026-04-15 19:28 51.74292 -119.50774 12798 ft 223 kts 18°
2026-04-15 19:28 51.75755 -119.49961 12798 ft 222 kts 17°
2026-04-15 19:28 51.77210 -119.49147 12799 ft 220 kts 17°
2026-04-15 19:29 51.78662 -119.48338 12789 ft 221 kts 18°
2026-04-15 19:29 51.80108 -119.47518 12792 ft 220 kts 17°
2026-04-15 19:29 51.81539 -119.46709 12786 ft 221 kts 18°
2026-04-15 19:29 51.83011 -119.45882 12790 ft 221 kts 17°
2026-04-15 19:30 51.84452 -119.45081 12787 ft 222 kts 17°
2026-04-15 19:30 51.85916 -119.44272 12786 ft 222 kts 18°
2026-04-15 19:30 51.87379 -119.43457 12786 ft 222 kts 17°
2026-04-15 19:30 51.88837 -119.42650 12787 ft 221 kts 17°
2026-04-15 19:31 51.90290 -119.41845 12785 ft 220 kts 17°
2026-04-15 19:31 51.91739 -119.41037 12783 ft 220 kts 17°
2026-04-15 19:31 51.93184 -119.40230 12784 ft 220 kts 18°
2026-04-15 19:31 51.94597 -119.39444 12462 ft 210 kts 17°
2026-04-15 19:32 51.96017 -119.38841 11465 ft 213 kts 360°
2026-04-15 19:32 51.97394 -119.39442 10681 ft 201 kts 324°
2026-04-15 19:32 51.98263 -119.41097 9867 ft 190 kts 289°
2026-04-15 19:32 51.98685 -119.43093 9016 ft 184 kts 279°
2026-04-15 19:33 51.98564 -119.45079 8189 ft 177 kts 242°
2026-04-15 19:33 51.97714 -119.46416 7410 ft 172 kts 205°
2026-04-15 19:33 51.96551 -119.46482 6889 ft 165 kts 160°
2026-04-15 19:33 51.95761 -119.45401 6870 ft 139 kts 127°
2026-04-15 19:34 51.95456 -119.43911 6880 ft 144 kts 101°
2026-04-15 19:34 51.95674 -119.42268 6891 ft 155 kts 68°
2026-04-15 19:34 51.96257 -119.40764 6908 ft 160 kts 52°
2026-04-15 19:34 51.97160 -119.39715 6896 ft 161 kts 25°
2026-04-15 19:35 51.98186 -119.39015 6897 ft 160 kts 20°
2026-04-15 19:35 51.99231 -119.38335 6901 ft 165 kts 21°
2026-04-15 19:35 52.00302 -119.37609 6910 ft 170 kts 22°
2026-04-15 19:35 52.01433 -119.36887 6907 ft 177 kts 21°
2026-04-15 19:36 52.02578 -119.36153 6886 ft 176 kts 21°
2026-04-15 19:36 52.03729 -119.35423 6755 ft 180 kts 21°
2026-04-15 19:36 52.04872 -119.34682 6637 ft 174 kts 21°
2026-04-15 19:36 52.05997 -119.33957 6357 ft 175 kts 21°
2026-04-15 19:37 52.07129 -119.33217 6148 ft 174 kts 22°
2026-04-15 19:37 52.08241 -119.32500 5923 ft 172 kts 21°
2026-04-15 19:37 52.09357 -119.31778 5597 ft 172 kts 21°
2026-04-15 19:37 52.10453 -119.31074 5372 ft 168 kts 21°
2026-04-15 19:38 52.11592 -119.30852 5030 ft 168 kts 344°
2026-04-15 19:38 52.12485 -119.31946 4817 ft 162 kts 297°
2026-04-15 19:38 52.12673 -119.33683 4607 ft 160 kts 256°
2026-04-15 19:38 52.12235 -119.35394 4838 ft 168 kts 242°
2026-04-15 19:39 52.11595 -119.37116 4876 ft 185 kts 232°
2026-04-15 19:39 52.10744 -119.38730 4631 ft 184 kts 229°
2026-04-15 19:39 52.10112 -119.40425 4429 ft 172 kts 256°
2026-04-15 19:39 52.10144 -119.42326 4286 ft 159 kts 270°
2026-04-15 19:40 52.09702 -119.43656 4587 ft 124 kts 214°
2026-04-15 19:40 52.08848 -119.43784 4343 ft 138 kts 153°
2026-04-15 19:40 52.08353 -119.42517 4109 ft 139 kts 99°
2026-04-15 19:40 52.08506 -119.40918 3693 ft 147 kts 69°
2026-04-15 19:41 52.09154 -119.39730 3544 ft 134 kts 28°
2026-04-15 19:41 52.09987 -119.39681 3807 ft 123 kts 324°
2026-04-15 19:41 52.10153 -119.40949 3938 ft 131 kts 264°
2026-04-15 19:41 52.10100 -119.42439 4019 ft 135 kts 244°
2026-04-15 19:42 52.09238 -119.42824 3885 ft 144 kts 166°
2026-04-15 19:42 52.08658 -119.41651 3862 ft 143 kts 103°
2026-04-15 19:42 52.09021 -119.40174 3766 ft 144 kts 40°
2026-04-15 19:42 52.09840 -119.39582 3955 ft 111 kts
2026-04-15 19:43 52.10418 -119.40083 4156 ft 100 kts 284°
2026-04-15 19:43 52.10497 -119.41273 4138 ft 117 kts 261°
2026-04-15 19:43 52.10175 -119.42483 4108 ft 116 kts 216°
2026-04-15 19:43 52.09366 -119.42641 3985 ft 127 kts 154°
2026-04-15 19:44 52.09007 -119.41451 3991 ft 126 kts 82°
2026-04-15 19:44 52.09563 -119.40652 4202 ft 113 kts
2026-04-15 19:44 52.10362 -119.41024 4146 ft 126 kts 324°
2026-04-15 19:44 52.10594 -119.42249 4109 ft 113 kts 246°
2026-04-15 19:45 52.09979 -119.42874 4012 ft 119 kts 173°
2026-04-15 19:45 52.09393 -119.41970 3873 ft 128 kts 103°
2026-04-15 19:45 52.09609 -119.40619 3732 ft 122 kts 49°
2026-04-15 19:45 52.10280 -119.40399 4027 ft 102 kts 325°
2026-04-15 19:46 52.10576 -119.41560 4097 ft 132 kts 268°
2026-04-15 19:46 52.10105 -119.42742 4098 ft 143 kts 194°
2026-04-15 19:46 52.09136 -119.42374 3974 ft 152 kts 137°
2026-04-15 19:46 52.08968 -119.40906 4014 ft 131 kts 69°
2026-04-15 19:47 52.09637 -119.40242 4067 ft 111 kts
2026-04-15 19:47 52.10132 -119.40522 4081 ft 121 kts 317°
2026-04-15 19:47 52.10437 -119.41711 4069 ft 118 kts 250°
2026-04-15 19:47 52.09948 -119.42723 4396 ft 116 kts 217°
2026-04-15 19:48 52.09271 -119.43530 4597 ft 132 kts 216°
2026-04-15 19:48 52.08476 -119.44549 4650 ft 157 kts 218°
2026-04-15 19:48 52.07566 -119.45693 4747 ft 173 kts 217°
2026-04-15 19:48 52.06594 -119.46931 4756 ft 181 kts 217°
2026-04-15 19:49 52.05610 -119.48270 4713 ft 190 kts 223°
2026-04-15 19:49 52.04831 -119.49921 4967 ft 173 kts 246°
2026-04-15 19:49 52.04459 -119.51676 5392 ft 161 kts 243°
2026-04-15 19:49 52.03971 -119.53352 5503 ft 170 kts 235°
2026-04-15 19:50 52.03138 -119.54821 5492 ft 184 kts 221°
2026-04-15 19:50 52.02158 -119.56064 5896 ft 173 kts 216°
2026-04-15 19:50 52.01241 -119.57112 6371 ft 151 kts 207°
2026-04-15 19:50 52.00233 -119.57969 6313 ft 171 kts 207°
2026-04-15 19:51 51.99240 -119.58825 6869 ft 153 kts 207°
2026-04-15 19:51 51.98304 -119.59622 7240 ft 154 kts 206°
2026-04-15 19:51 51.97348 -119.60409 7539 ft 154 kts 204°
2026-04-15 19:51 51.96359 -119.61054 7887 ft 152 kts 202°
2026-04-15 19:52 51.95371 -119.61690 8211 ft 153 kts 203°
2026-04-15 19:52 51.94390 -119.62352 8590 ft 150 kts 204°
2026-04-15 19:52 51.93423 -119.63014 8927 ft 151 kts 205°
2026-04-15 19:52 51.92463 -119.63669 9305 ft 151 kts 204°
2026-04-15 19:53 51.91490 -119.64335 9632 ft 152 kts 205°
2026-04-15 19:53 51.90509 -119.65006 9952 ft 154 kts 204°
2026-04-15 19:53 51.89524 -119.65685 10257 ft 154 kts 205°
2026-04-15 19:53 51.88537 -119.66354 10517 ft 154 kts 205°
2026-04-15 19:54 51.87540 -119.67030 10778 ft 157 kts 205°
2026-04-15 19:54 51.86531 -119.67721 11023 ft 159 kts 205°
2026-04-15 19:54 51.85510 -119.68422 11282 ft 159 kts 205°
2026-04-15 19:54 51.84489 -119.69113 11552 ft 158 kts 206°
2026-04-15 19:55 51.83469 -119.69811 11771 ft 162 kts 205°
2026-04-15 19:55 51.82405 -119.70549 11790 ft 172 kts 205°
2026-04-15 19:55 51.81267 -119.71310 11799 ft 181 kts 205°
2026-04-15 19:55 51.80081 -119.72118 11799 ft 188 kts 205°
2026-04-15 19:56 51.78865 -119.72940 11792 ft 190 kts 206°
2026-04-15 19:56 51.77668 -119.73765 11799 ft 186 kts 205°
2026-04-15 19:56 51.76472 -119.74570 11795 ft 186 kts 205°
2026-04-15 19:56 51.75286 -119.75372 11796 ft 184 kts 205°
2026-04-15 19:57 51.74105 -119.76173 11796 ft 184 kts 205°
2026-04-15 19:57 51.72934 -119.76969 11791 ft 185 kts 205°
2026-04-15 19:57 51.71744 -119.77768 11791 ft 185 kts 205°
2026-04-15 19:57 51.70566 -119.78579 11776 ft 184 kts 206°
2026-04-15 19:58 51.69389 -119.79370 11782 ft 183 kts 205°
2026-04-15 19:58 51.68225 -119.80170 11780 ft 182 kts 206°
2026-04-15 19:58 51.67050 -119.80954 11782 ft 184 kts 205°
2026-04-15 19:58 51.65869 -119.81739 11774 ft 183 kts 205°
2026-04-15 19:59 51.64713 -119.82520 11781 ft 180 kts 205°
2026-04-15 19:59 51.63558 -119.83306 11775 ft 181 kts 204°
2026-04-15 19:59 51.62389 -119.84095 11771 ft 183 kts 205°
2026-04-15 19:59 51.61209 -119.84889 11778 ft 185 kts 205°
2026-04-15 20:00 51.60016 -119.85692 11775 ft 186 kts 205°
2026-04-15 20:00 51.58817 -119.86499 11764 ft 187 kts 205°
2026-04-15 20:00 51.57623 -119.87302 11760 ft 186 kts 204°
2026-04-15 20:00 51.56436 -119.88101 11769 ft 184 kts 205°
2026-04-15 20:01 51.55261 -119.88889 11765 ft 183 kts 204°
2026-04-15 20:01 51.54092 -119.89673 11769 ft 182 kts 205°
2026-04-15 20:01 51.52920 -119.90458 11769 ft 183 kts 205°
2026-04-15 20:01 51.51745 -119.91252 11770 ft 183 kts 205°
2026-04-15 20:02 51.50569 -119.92042 11763 ft 182 kts 206°
2026-04-15 20:02 51.49403 -119.92834 11775 ft 183 kts 205°
2026-04-15 20:02 51.48216 -119.93614 11773 ft 185 kts 204°
2026-04-15 20:02 51.47032 -119.94407 11772 ft 184 kts 205°
2026-04-15 20:03 51.45873 -119.95169 11775 ft 181 kts 204°
2026-04-15 20:03 51.44704 -119.95943 11768 ft 182 kts 205°
2026-04-15 20:03 51.43541 -119.96747 11777 ft 184 kts 205°
2026-04-15 20:03 51.42369 -119.97528 11782 ft 182 kts 204°
2026-04-15 20:04 51.41196 -119.98304 11784 ft 181 kts 204°
2026-04-15 20:04 51.40040 -119.99054 11789 ft 180 kts 205°
2026-04-15 20:04 51.38885 -119.99845 11781 ft 180 kts 205°
2026-04-15 20:04 51.37723 -120.00612 11786 ft 180 kts 204°
2026-04-15 20:05 51.36556 -120.01392 11787 ft 183 kts 205°
2026-04-15 20:05 51.35376 -120.02187 11769 ft 185 kts 206°
2026-04-15 20:05 51.34187 -120.02975 11774 ft 185 kts 206°
2026-04-15 20:05 51.32996 -120.03766 11768 ft 186 kts 206°
2026-04-15 20:06 51.31799 -120.04558 11776 ft 186 kts 206°
2026-04-15 20:06 51.30603 -120.05355 11770 ft 186 kts 206°
2026-04-15 20:06 51.29414 -120.06137 11769 ft 184 kts 207°
2026-04-15 20:06 51.28227 -120.06921 11769 ft 186 kts 207°
2026-04-15 20:07 51.27032 -120.07719 11772 ft 186 kts 207°
2026-04-15 20:07 51.25836 -120.08511 11775 ft 185 kts 207°
2026-04-15 20:07 51.24650 -120.09301 11772 ft 185 kts 207°
2026-04-15 20:07 51.23457 -120.10091 11765 ft 187 kts 207°
2026-04-15 20:08 51.22259 -120.10884 11766 ft 186 kts 207°
2026-04-15 20:08 51.21063 -120.11673 11770 ft 186 kts 206°
2026-04-15 20:08 51.19867 -120.12463 11766 ft 186 kts 206°
2026-04-15 20:08 51.18668 -120.13253 11766 ft 186 kts 206°
2026-04-15 20:09 51.17471 -120.14044 11771 ft 185 kts 207°
2026-04-15 20:09 51.16284 -120.14826 11772 ft 185 kts 207°
2026-04-15 20:09 51.15099 -120.15610 11769 ft 185 kts 205°
2026-04-15 20:09 51.13913 -120.16387 11768 ft 184 kts 206°
2026-04-15 20:10 51.12751 -120.17146 11767 ft 182 kts 206°
2026-04-15 20:10 51.11580 -120.17922 11767 ft 183 kts 206°
2026-04-15 20:10 51.10399 -120.18703 11764 ft 184 kts 207°
2026-04-15 20:10 51.09219 -120.19479 11768 ft 183 kts 207°
2026-04-15 20:11 51.08040 -120.20255 11766 ft 184 kts 207°
2026-04-15 20:11 51.06858 -120.21033 11766 ft 185 kts 205°
2026-04-15 20:11 51.05671 -120.21810 11782 ft 184 kts 207°
2026-04-15 20:11 51.04491 -120.22582 11780 ft 183 kts 207°
2026-04-15 20:12 51.03318 -120.23348 11774 ft 182 kts 206°
2026-04-15 20:12 51.02151 -120.24114 11779 ft 181 kts 207°
2026-04-15 20:12 51.00996 -120.24882 11784 ft 178 kts 206°
2026-04-15 20:12 50.99849 -120.25530 11763 ft 173 kts 203°
2026-04-15 20:13 50.98638 -120.25853 11761 ft 179 kts 190°
2026-04-15 20:13 50.97409 -120.25973 11620 ft 175 kts 190°
2026-04-15 20:13 50.96166 -120.26105 10735 ft 184 kts 193°
2026-04-15 20:13 50.94868 -120.26182 10240 ft 186 kts 186°
2026-04-15 20:14 50.93579 -120.26204 9814 ft 184 kts 188°
2026-04-15 20:14 50.92309 -120.26435 9353 ft 180 kts 195°
2026-04-15 20:14 50.91083 -120.26725 8954 ft 176 kts 195°
2026-04-15 20:14 50.89882 -120.26992 8479 ft 176 kts 194°
2026-04-15 20:15 50.88680 -120.27290 8092 ft 175 kts 194°
2026-04-15 20:15 50.87483 -120.27614 7754 ft 171 kts 194°
2026-04-15 20:15 50.86317 -120.27933 7427 ft 166 kts 194°
2026-04-15 20:15 50.85193 -120.28240 6895 ft 168 kts 194°
2026-04-15 20:16 50.84060 -120.28585 6466 ft 169 kts 194°
2026-04-15 20:16 50.82923 -120.28971 6087 ft 164 kts 196°
2026-04-15 20:16 50.81835 -120.29479 5684 ft 162 kts 199°
2026-04-15 20:16 50.80778 -120.30015 5281 ft 159 kts 199°
2026-04-15 20:17 50.79741 -120.30571 4708 ft 155 kts 199°
2026-04-15 20:17 50.78667 -120.31190 3761 ft 170 kts 198°
2026-04-15 20:17 50.77579 -120.31871 3251 ft 168 kts 199°
2026-04-15 20:17 50.76497 -120.32455 2832 ft 164 kts 197°
2026-04-15 20:18 50.75401 -120.33010 2462 ft 161 kts 198°
2026-04-15 20:18 50.74409 -120.33637 2445 ft 150 kts 211°
2026-04-15 20:18 50.73720 -120.34821 2441 ft 146 kts 226°
2026-04-15 20:18 50.73070 -120.36047 2442 ft 145 kts 225°
2026-04-15 20:19 50.72447 -120.37232 2350 ft 137 kts 225°
2026-04-15 20:19 50.71832 -120.38487 1820 ft 156 kts 227°
2026-04-15 20:19 50.71087 -120.39756 1752 ft 155 kts 219°
2026-04-15 20:19 50.70407 -120.40735 1695 ft 116 kts 223°
2026-04-15 20:20 50.70044 -120.41765 1483 ft 105 kts 242°
2026-04-15 20:20 50.69997 -120.42850 1213 ft 103 kts 276°
2026-04-15 20:20 50.70161 -120.43909 1132 ft 87 kts 283°
2026-04-15 20:20 50.70270 -120.44636 1123 ft 51 kts 284°
2026-04-15 20:21 50.70343 -120.45000 1131 ft 18 kts 236°
2026-04-15 20:21 50.70311 -120.44939 1130 ft 15 kts 101°
2026-04-15 20:21 50.70275 -120.44677 1125 ft 22 kts 101°
2026-04-15 20:21 50.70246 -120.44448 1131 ft 21 kts 86°
2026-04-15 20:22 50.70337 -120.44347 1129 ft 17 kts 46°
2026-04-15 20:22 50.70393 -120.44189 1129 ft 17 kts 62°
2026-04-15 20:22 50.70457 -120.44036 1131 ft 16 kts 39°
2026-04-15 20:22 50.70549 -120.43924 1129 ft 17 kts 59°
2026-04-15 20:23 50.70577 -120.43796 1129 ft 6 kts 135°
2026-04-15 20:23 50.70584 -120.43752 1129 ft 1 kts 64°
2026-04-15 20:23 50.70584 -120.43751 1129 ft 0 kts 64°